EW7144 Weather Reports


time (UTC)temp
C
wind
direction
speed
KPH
gust
KPH
rain 1hr
cm
rain 24hr
cm
rain mn
cm
humidity
%
barometer
mb
20260904232406 12 324 9.7 20.9 0.00 0.00 0.00 87 1015.6
20260904231906 11 303 11.3 24.1 0.00 0.00 0.00 87 1015.8
20260904231406 11 347 9.7 20.9 0.00 0.00 0.00 87 1015.9
20260904230906 11 315 6.4 25.7 0.00 0.00 0.00 87 1015.8
20260904230406 11 341 4.8 19.3 0.00 0.00 0.00 87 1015.9
20260904225906 11 321 8.0 20.9 0.00 0.00 0.00 87 1015.9
20260904225406 11 269 8.0 24.1 0.00 0.00 0.00 87 1015.9
20260904224906 11 211 8.0 20.9 0.00 0.00 0.00 86 1016.0
20260904224407 11 237 9.7 24.1 0.00 0.00 0.00 86 1016.1
20260904223907 11 245 4.8 14.5 0.00 0.00 0.00 85 1016.1
20260904222906 12 234 8.0 22.5 0.00 0.00 0.00 83 1016.0
20260904221906 13 346 12.9 25.7 0.00 0.00 0.00 78 1015.8
20260904221407 13 346 9.7 27.4 0.00 0.00 0.00 78 1015.7
20260904220906 13 315 9.7 22.5 0.00 0.00 0.00 79 1015.6
20260904220406 13 328 9.7 25.7 0.00 0.00 0.00 80 1015.7
20260904215906 13 353 12.9 24.1 0.00 0.00 0.00 80 1015.6
20260904215407 13 325 11.3 24.1 0.00 0.00 0.00 79 1015.7
20260904214406 13 343 12.9 22.5 0.00 0.00 0.00 79 1015.7
20260904213906 13 330 8.0 19.3 0.00 0.00 0.00 80 1015.6
20260904213406 12 321 8.0 24.1 0.00 0.00 0.00 80 1015.7
20260904212406 12 315 4.8 16.1 0.00 0.00 0.00 83 1015.7
20260904211907 12 258 4.8 16.1 0.00 0.00 0.00 83 1015.8
20260904211406 12 313 6.4 19.3 0.00 0.00 0.00 84 1015.9
20260904210906 11 237 1.6 8.0 0.00 0.00 0.00 84 1015.9
20260904210406 11 221 3.2 11.3 0.00 0.00 0.00 84 1015.9
20260904205906 11 209 3.2 9.7 0.00 0.00 0.00 83 1016.0
20260904205406 11 209 3.2 11.3 0.00 0.00 0.00 82 1016.0
20260904204906 11 279 4.8 16.1 0.00 0.00 0.00 82 1016.0
20260904204405 12 201 3.2 14.5 0.00 0.00 0.00 81 1015.9
20260904203906 12 151 4.8 11.3 0.00 0.00 0.00 81 1015.9
20260904202906 11 204 4.8 11.3 0.00 0.00 0.00 81 1015.9
20260904202406 11 217 3.2 9.7 0.00 0.00 0.00 81 1015.9
20260904201406 11 228 1.6 9.7 0.00 0.00 0.00 81 1015.9
20260904200906 11 278 3.2 9.7 0.00 0.00 0.00 81 1015.8
20260904200406 11 253 3.2 8.0 0.00 0.00 0.00 81 1015.8
20260904195906 11 227 3.2 4.8 0.00 0.00 0.00 81 1015.7
20260904195406 11 231 1.6 4.8 0.00 0.00 0.00 81 1015.7
20260904194405 11 299 1.6 8.0 0.00 0.00 0.00 81 1015.5
20260904193906 11 270 1.6 4.8 0.00 0.00 0.00 81 1015.4
20260904193406 11 274 3.2 11.3 0.00 0.00 0.00 81 1015.4
20260904192906 10 343 4.8 9.7 0.00 0.00 0.00 81 1015.3
20260904191906 10 353 3.2 11.3 0.00 0.00 0.00 81 1015.3
20260904191406 10 327 4.8 8.0 0.00 0.00 0.00 81 1015.0
20260904190906 10 320 4.8 9.7 0.00 0.00 0.00 81 1014.9
20260904190406 10 249 3.2 8.0 0.00 0.00 0.00 81 1014.9
20260904185905 10 241 1.6 4.8 0.00 0.00 0.00 81 1014.9
20260904185406 10 332 3.2 8.0 0.00 0.00 0.00 81 1014.9
20260904184906 10 234 1.6 11.3 0.00 0.00 0.00 80 1014.9
20260904184406 10 254 4.8 12.9 0.00 0.00 0.00 80 1014.9
20260904183907 10 243 3.2 8.0 0.00 0.00 0.00 80 1014.8
20260904183406 10 207 3.2 8.0 0.00 0.00 0.00 80 1014.8
20260904182906 10 207 3.2 8.0 0.00 0.00 0.00 79 1014.7
20260904182406 10 276 1.6 4.8 0.00 0.00 0.00 79 1014.8
20260904181905 10 218 3.2 8.0 0.00 0.00 0.00 79 1014.8
20260904180906 10 243 3.2 4.8 0.00 0.00 0.00 79 1014.7
20260904180406 10 228 4.8 14.5 0.00 0.00 0.00 79 1014.8
20260904175406 10 324 3.2 8.0 0.00 0.00 0.00 78 1014.8
20260904174906 10 218 3.2 9.7 0.00 0.00 0.00 78 1014.8
20260904174406 10 239 3.2 9.7 0.00 0.00 0.00 78 1014.7
20260904173906 10 214 3.2 11.3 0.00 0.00 0.00 78 1014.7
20260904173406 10 218 3.2 11.3 0.00 0.00 0.00 77 1014.7
20260904172906 10 218 3.2 11.3 0.00 0.00 0.00 77 1014.6
20260904172406 10 208 6.4 12.9 0.00 0.00 0.00 77 1014.6
20260904171906 10 200 6.4 22.5 0.00 0.00 0.00 77 1014.5
20260904171406 10 207 8.0 19.3 0.00 0.00 0.00 77 1014.5
20260904170906 10 193 6.4 19.3 0.00 0.00 0.00 77 1014.4
20260904170406 10 199 8.0 19.3 0.00 0.00 0.00 77 1014.3
20260904165906 10 200 9.7 19.3 0.00 0.00 0.00 78 1014.2
20260904165406 10 216 9.7 19.3 0.00 0.00 0.00 78 1014.2
20260904164406 10 239 4.8 19.3 0.00 0.00 0.00 78 1014.1
20260904163906 10 219 4.8 14.5 0.00 0.00 0.00 77 1014.0
20260904163407 10 216 6.4 19.3 0.00 0.00 0.00 77 1013.8
20260904162406 10 209 6.4 16.1 0.00 0.00 0.00 77 1013.6
20260904161906 11 205 8.0 19.3 0.00 0.00 0.00 76 1013.5
20260904161406 11 223 9.7 22.5 0.00 0.00 0.00 76 1013.4
20260904160906 11 196 8.0 19.3 0.00 0.00 0.00 76 1013.3
20260904160406 11 198 8.0 29.0 0.00 0.00 0.00 76 1013.2
20260904155906 11 219 11.3 25.7 0.00 0.00 0.00 76 1013.1
20260904155406 11 224 9.7 27.4 0.00 0.00 0.00 76 1013.0
20260904154906 11 200 9.7 29.0 0.00 0.00 0.00 77 1013.0
20260904154406 11 204 14.5 32.2 0.00 0.00 0.00 77 1013.0
20260904153906 11 236 4.8 19.3 0.00 0.00 0.00 77 1013.1
20260904153406 11 209 8.0 25.7 0.00 0.00 0.00 77 1013.1
20260904152905 11 230 6.4 20.9 0.00 0.00 0.00 77 1013.0
20260904152406 11 239 9.7 27.4 0.00 0.00 0.00 77 1012.9
20260904151906 11 202 12.9 25.7 0.00 0.00 0.00 77 1012.8
20260904151406 11 206 11.3 24.1 0.00 0.00 0.00 77 1012.8
20260904150906 11 193 12.9 27.4 0.00 0.00 0.00 77 1012.8
20260904150406 11 211 14.5 29.0 0.00 0.00 0.00 77 1012.8
20260904145906 11 217 11.3 32.2 0.00 0.00 0.00 77 1012.8
20260904145406 11 220 11.3 29.0 0.00 0.00 0.00 77 1012.8
20260904144905 11 196 9.7 22.5 0.00 0.00 0.00 76 1012.9
20260904144406 11 198 12.9 33.8 0.00 0.00 0.00 76 1012.9
20260904143906 11 203 11.3 27.4 0.00 0.00 0.00 76 1012.9
20260904143406 11 195 12.9 32.2 0.00 0.00 0.00 76 1012.9
20260904142906 11 218 9.7 22.5 0.00 0.00 0.00 76 1013.0
20260904142406 11 203 11.3 27.4 0.00 0.00 0.00 76 1013.0
20260904141906 12 199 11.3 29.0 0.00 0.00 0.00 76 1012.9
20260904140906 11 211 14.5 33.8 0.00 0.00 0.00 76 1012.8
20260904140406 11 211 11.3 29.0 0.00 0.00 0.00 76 1012.8
20260904135406 11 229 9.7 37.0 0.00 0.00 0.00 76 1012.7
20260904134906 12 206 11.3 33.8 0.00 0.00 0.00 76 1012.8
20260904134406 11 215 14.5 41.8 0.00 0.00 0.00 76 1012.7
20260904133907 11 208 9.7 24.1 0.00 0.00 0.00 75 1012.6
20260904132906 11 216 16.1 35.4 0.00 0.00 0.00 76 1012.3
20260904132407 11 203 14.5 32.2 0.00 0.00 0.00 77 1012.3
20260904131906 11 194 9.7 33.8 0.00 0.00 0.00 77 1012.3
20260904131406 11 215 9.7 41.8 0.00 0.00 0.00 77 1012.3
20260904130906 11 202 16.1 32.2 0.00 0.00 0.00 77 1012.2
20260904130406 11 231 11.3 29.0 0.00 0.00 0.00 76 1012.2
20260904125906 11 202 8.0 32.2 0.00 0.00 0.00 76 1011.9
20260904124906 11 191 12.9 29.0 0.00 0.00 0.00 76 1011.8
20260904124405 11 192 14.5 32.2 0.00 0.00 0.00 77 1011.7
20260904123906 11 216 16.1 40.2 0.00 0.00 0.00 77 1011.6
20260904123406 11 189 11.3 32.2 0.00 0.00 0.00 78 1011.5
20260904121906 11 203 14.5 25.7 0.00 0.00 0.00 79 1011.3
20260904121407 11 288 8.0 27.4 0.00 0.00 0.00 78 1011.3
20260904120906 11 234 11.3 29.0 0.00 0.00 0.00 78 1011.4
20260904115906 11 196 11.3 33.8 0.00 0.00 0.00 78 1011.3
20260904114906 11 240 9.7 32.2 0.00 0.00 0.00 77 1011.1
20260904114408 11 201 16.1 45.1 0.00 0.00 0.00 76 1011.1
20260904113906 11 202 14.5 45.1 0.00 0.00 0.00 76 1011.1
20260904113406 12 217 12.9 33.8 0.00 0.00 0.00 76 1011.1
20260904112907 11 222 12.9 25.7 0.00 0.00 0.00 76 1011.0
20260904112406 11 228 16.1 33.8 0.00 0.00 0.00 76 1010.9
20260904111906 11 199 12.9 33.8 0.00 0.00 0.00 76 1010.8
20260904110906 11 226 11.3 32.2 0.00 0.00 0.00 75 1010.9
20260904110406 11 220 11.3 29.0 0.00 0.00 0.00 75 1011.0
20260904105907 11 216 12.9 32.2 0.00 0.00 0.00 74 1010.9
20260904105407 11 206 11.3 32.2 0.00 0.00 0.00 74 1011.0
20260904104907 11 300 14.5 41.8 0.00 0.00 0.00 74 1010.8
20260904103906 11 216 8.0 20.9 0.00 0.00 0.00 75 1010.7
20260904103406 11 209 11.3 38.6 0.00 0.00 0.00 74 1010.5
20260904102906 11 218 16.1 35.4 0.00 0.00 0.00 75 1010.4
20260904102410 11 259 16.1 38.6 0.00 0.00 0.00 75 1010.2
20260904101906 11 256 14.5 32.2 0.00 0.00 0.00 76 1010.2
20260904100906 11 223 16.1 35.4 0.00 0.00 0.00 75 1010.3
20260904100407 11 225 16.1 45.1 0.00 0.00 0.00 75 1010.3
20260904095907 11 226 11.3 32.2 0.00 0.00 0.00 75 1010.2
20260904094906 11 194 9.7 22.5 0.00 0.00 0.00 74 1010.0
20260904094406 11 222 16.1 33.8 0.00 0.00 0.00 74 1010.0
20260904093906 11 215 14.5 32.2 0.00 0.00 0.00 75 1009.9
20260904093406 11 233 12.9 29.0 0.00 0.00 0.00 74 1009.9
20260904091906 11 264 12.9 33.8 0.00 0.00 0.00 76 1009.7
20260904091406 11 214 17.7 33.8 0.00 0.00 0.00 76 1009.4
20260904090906 11 237 14.5 32.2 0.00 0.00 0.00 76 1009.6
20260904090406 11 244 19.3 37.0 0.00 0.00 0.00 75 1009.6
20260904085906 11 229 11.3 35.4 0.00 0.00 0.00 76 1009.5
20260904085406 11 226 14.5 40.2 0.00 0.00 0.00 75 1009.5
20260904084906 11 228 19.3 40.2 0.00 0.00 0.00 75 1009.3
20260904084406 11 204 11.3 38.6 0.00 0.00 0.00 76 1009.2
20260904083906 11 224 20.9 40.2 0.00 0.00 0.00 75 1009.2
20260904083406 11 206 17.7 37.0 0.00 0.00 0.00 76 1009.1
20260904082907 11 223 16.1 37.0 0.00 0.00 0.00 77 1008.9
20260904081906 11 239 14.5 45.1 0.00 0.00 0.00 79 1008.7
20260904081406 11 200 19.3 37.0 0.00 0.00 0.00 80 1008.5
20260904080906 11 245 14.5 41.8 0.00 0.00 0.00 80 1008.3
20260904080406 11 210 22.5 45.1 0.00 0.00 0.00 81 1007.9
20260904075906 11 214 22.5 48.3 0.00 0.00 0.00 81 1007.8
20260904075406 11 317 19.3 45.1 0.00 0.00 0.00 81 1007.7
20260904074906 11 219 16.1 41.8 0.00 0.00 0.00 82 1007.8
20260904074410 11 201 12.9 38.6 0.00 0.00 0.00 82 1007.7
20260904073406 10 214 14.5 40.2 0.00 0.00 0.00 81 1007.9
20260904072906 10 202 17.7 38.6 0.00 0.00 0.00 81 1007.8
20260904072406 10 206 17.7 41.8 0.00 0.00 0.00 81 1007.6
20260904071906 10 234 17.7 37.0 0.00 0.00 0.00 81 1007.6
20260904065406 10 214 29.0 51.5 0.00 0.00 0.00 84 1007.5
20260904064906 9 211 27.4 57.9 0.00 0.00 0.00 85 1007.3
20260904064406 9 217 24.1 51.5 0.00 0.00 0.00 86 1007.3
20260904063906 9 221 25.7 56.3 0.00 0.00 0.00 86 1007.3
20260904063406 9 248 24.1 41.8 0.00 0.00 0.00 87 1007.1
20260904062906 9 212 20.9 49.9 0.00 0.00 0.00 87 1007.2
20260904062406 9 222 20.9 45.1 0.00 0.00 0.00 86 1007.3
20260904061907 10 225 22.5 51.5 0.00 0.00 0.00 86 1007.6
20260904061406 10 201 19.3 46.7 0.00 0.00 0.00 85 1007.7
20260904060406 11 232 22.5 46.7 0.00 0.00 0.00 82 1007.9
20260904055906 12 283 22.5 40.2 0.00 0.00 0.00 81 1007.6
20260904055405 12 320 24.1 45.1 0.00 0.00 0.00 80 1007.3
20260904054906 12 321 16.1 35.4 0.00 0.00 0.00 81 1007.1
20260904054405 12 319 16.1 41.8 0.00 0.00 0.00 80 1006.9
20260904053406 12 300 17.7 37.0 0.00 0.00 0.00 80 1007.0
20260904052905 12 307 20.9 53.1 0.00 0.00 0.00 80 1007.0
20260904052406 12 236 19.3 41.8 0.00 0.00 0.00 80 1007.1
20260904051906 12 244 19.3 40.2 0.00 0.00 0.00 80 1007.0
20260904050906 12 233 14.5 33.8 0.00 0.00 0.00 81 1007.2
20260904050405 12 250 19.3 37.0 0.00 0.00 0.00 82 1007.1
20260904045906 12 235 19.3 45.1 0.00 0.00 0.00 83 1007.1
20260904045405 11 308 14.5 32.2 0.00 0.00 0.00 84 1007.1
20260904044906 10 301 14.5 32.2 0.00 0.00 0.00 85 1007.3
20260904044405 10 264 19.3 35.4 0.00 0.00 0.00 84 1007.3
20260904043905 10 252 17.7 41.8 0.00 0.00 0.00 84 1007.4
20260904043405 10 205 22.5 41.8 0.00 0.00 0.00 84 1007.5
20260904042406 12 235 25.7 59.5 0.00 0.00 0.00 83 1007.1
20260904041906 12 225 17.7 38.6 0.00 0.00 0.00 84 1006.6
20260904041406 12 264 17.7 35.4 0.00 0.00 0.00 84 1006.6
20260904040905 12 221 16.1 38.6 0.00 0.00 0.00 84 1006.7
20260904040406 12 272 19.3 35.4 0.00 0.00 0.00 81 1006.7
20260904035905 13 271 16.1 40.2 0.00 0.00 0.00 78 1007.2
20260904035405 14 317 20.9 46.7 0.00 0.00 0.00 75 1006.6
20260904034905 15 326 22.5 46.7 0.00 0.00 0.00 74 1006.6
20260904034405 15 341 16.1 41.8 0.00 0.00 0.00 73 1006.4
20260904033905 15 272 19.3 38.6 0.00 0.00 0.00 73 1006.2
20260904033406 15 295 19.3 41.8 0.00 0.00 0.00 74 1006.2
20260904032906 15 320 12.9 35.4 0.00 0.00 0.00 76 1005.9
20260904031906 13 293 14.5 32.2 0.00 0.00 0.00 76 1006.0
20260904031406 13 283 16.1 37.0 0.00 0.00 0.00 74 1006.1
20260904030905 14 322 20.9 37.0 0.00 0.00 0.00 73 1006.2
20260904030406 15 252 17.7 41.8 0.00 0.00 0.00 71 1006.0
20260904025406 15 302 16.1 38.6 0.00 0.00 0.00 71 1006.2
20260904024905 15 315 17.7 38.6 0.00 0.00 0.00 70 1005.9
20260904024406 15 300 19.3 38.6 0.00 0.00 0.00 70 1006.0
20260904023406 15 224 16.1 35.4 0.00 0.00 0.00 71 1005.8
20260904022905 15 296 17.7 41.8 0.00 0.00 0.00 71 1005.8
20260904022406 15 238 19.3 45.1 0.00 0.00 0.00 70 1005.8
20260904021905 15 225 20.9 48.3 0.00 0.00 0.00 70 1005.6
20260904021406 15 221 20.9 41.8 0.00 0.00 0.00 70 1005.6
20260904020906 15 259 16.1 46.7 0.00 0.00 0.00 71 1005.6
20260904020406 15 214 19.3 41.8 0.00 0.00 0.00 71 1005.6
20260904015905 15 332 14.5 35.4 0.00 0.00 0.00 70 1005.6
20260904015405 15 333 17.7 37.0 0.00 0.00 0.00 72 1005.7
20260904014906 15 317 16.1 41.8 0.00 0.00 0.00 73 1005.7
20260904014406 15 340 11.3 35.4 0.00 0.00 0.00 74 1005.8
20260904013905 15 327 16.1 32.2 0.00 0.00 0.00 73 1005.8
20260904013406 15 330 19.3 35.4 0.00 0.00 0.00 73 1005.9
20260904012906 15 331 16.1 32.2 0.00 0.00 0.00 72 1006.0
20260904011905 15 216 17.7 35.4 0.00 0.00 0.00 70 1006.1
20260904011406 15 324 19.3 41.8 0.00 0.00 0.00 70 1006.1
20260904010906 15 238 16.1 35.4 0.00 0.00 0.00 70 1006.1
20260904010405 15 336 14.5 32.2 0.00 0.00 0.00 69 1006.2
20260904005906 15 326 12.9 32.2 0.00 0.00 0.00 71 1006.3
20260904005406 15 285 12.9 32.2 0.00 0.00 0.00 71 1006.3
20260904004905 15 280 16.1 33.8 0.00 0.00 0.00 72 1006.4
20260904004406 15 311 16.1 38.6 0.00 0.00 0.00 73 1006.4
20260904003906 15 293 14.5 45.1 0.00 0.00 0.00 74 1006.2
20260904003406 15 298 19.3 35.4 0.00 0.00 0.00 73 1006.2
20260904002906 15 341 14.5 38.6 0.00 0.00 0.00 73 1006.2
20260904002405 15 291 14.5 38.6 0.00 0.00 0.00 74 1006.2
20260904001908 15 258 19.3 38.6 0.00 0.00 0.00 71 1006.1
20260904000906 15 332 19.3 41.8 0.00 0.00 0.00 72 1006.1
20260904000406 15 282 16.1 41.8 0.00 0.00 0.00 73 1005.9
20260903235907 15 320 11.3 46.7 0.00 0.00 0.00 75 1006.0
20260903235406 15 320 14.5 32.2 0.00 0.00 0.00 75 1005.9
20260903234906 15 294 16.1 37.0 0.00 0.00 0.00 74 1005.7
20260903234406 15 293 19.3 48.3 0.00 0.00 0.00 74 1005.5
20260903233906 15 313 16.1 33.8 0.00 0.00 0.00 75 1005.5
20260903233406 15 336 19.3 41.8 0.00 0.00 0.00 74 1005.3
20260903232906 15 318 17.7 46.7 0.00 0.00 0.00 75 1005.3